This is the latest recevied weather packets stored in our database for station/object BMCB-7. If no packets are shown the sender has not sent any weather packets the latest 10 day(s).
| Time | Temp. | Humidity | Pressure | Rain* | Wind** | Luminosity | Snow |
|---|---|---|---|---|---|---|---|
| 1778050838 | 7.22° C | 98% | 1006.6 hPa | 1.78 mm | - | 42 W/m² | - |
| 1778046648 | 7.22° C | 98% | 1006.3 hPa | 1.52 mm | - | 22 W/m² | - |
| 1778045446 | 7.22° C | 98% | 1006.3 hPa | 1.52 mm | - | 10 W/m² | - |
| 1778044247 | 7.22° C | 98% | 1006.2 hPa | 1.52 mm | - | 10 W/m² | - |
| 1778041245 | 7.22° C | 98% | 1006.1 hPa | 1.52 mm | - | 0 W/m² | - |
| 1778040643 | 7.78° C | 98% | 1006.1 hPa | 1.52 mm | - | 0 W/m² | - |
| 1778040047 | 7.78° C | 98% | 1006.1 hPa | 1.27 mm | - | 0 W/m² | - |
| 1778037045 | 7.78° C | 98% | 1006.2 hPa | 0.76 mm | - | 0 W/m² | - |
| 1778035843 | 7.78° C | 98% | 1006.2 hPa | 0.76 mm | - | 0 W/m² | - |
| 1778031047 | 8.33° C | 98% | 1006.4 hPa | 1.52 mm | - | 0 W/m² | - |
| 1778024450 | 8.89° C | 98% | 1007 hPa | 1.78 mm | - | 0 W/m² | - |
| 1778023849 | 8.89° C | 98% | 1007 hPa | 1.78 mm | - | 0 W/m² | - |
| 1778017857 | 8.89° C | 98% | 1007.2 hPa | 1.27 mm | - | 0 W/m² | - |
| 1778016055 | 8.89° C | 98% | 1007.4 hPa | 1.52 mm | - | 0 W/m² | - |
| 1778010651 | 9.44° C | 98% | 1007.3 hPa | 2.29 mm | - | 0 W/m² | - |
| 1778007052 | 10° C | 98% | 1006.9 hPa | 1.52 mm | - | 2 W/m² | - |
| 1778001049 | 10° C | 99% | 1007 hPa | 0.51 mm | - | 28 W/m² | - |
| 1778000451 | 10° C | 99% | 1007 hPa | 0.76 mm | - | 32 W/m² | - |
| 1777998655 | 10° C | 99% | 1007.1 hPa | 1.02 mm | - | 28 W/m² | - |
| 1777993846 | 10.56° C | 97% | 1007.2 hPa | 0.25 mm | - | 72 W/m² | - |
| 1777993251 | 10.56° C | 97% | 1007.2 hPa | 0 mm | - | 68 W/m² | - |
| 1777991448 | 11.11° C | 96% | 1007.3 hPa | 0 mm | - | 72 W/m² | - |
| 1777989050 | 11.67° C | 95% | 1007.3 hPa | 0 mm | - | 112 W/m² | - |
| 1777983647 | 12.78° C | 92% | 1007.7 hPa | 0 mm | - | 254 W/m² | - |
| 1777983047 | 12.78° C | 93% | 1007.7 hPa | 0 mm | - | 242 W/m² | - |
* Rain latest hour (hover to see other rain measurements)
** Current wind speed in m/s (hover to see current wind gust speed)